Regional Weather Roundup
Issued by NWS

Home | Current Version | Previous Version | Text Only | Print | Product List | Glossary Off
Versions: 1 2 3 4 5 6 7 8 9 10 11 12 13 14 15 16 17 18 19 20 21 22 23 24 25 26 27 28 29 30 31 32 33 34 35 36 37 38 39 40 41 42 43 44 45 46 47 48 49 50

000
ASUS45 KSLC 260110
RWRUT

UTAH REGIONAL WEATHER ROUNDUP
NATIONAL WEATHER SERVICE SALT LAKE CITY UT
700 PM MDT THU MAY 25 2017

UTZ001>011-023>025-260200-

NORTHERN UTAH

CITY           SKY/WX    TMP DP  RH WIND       PRES   REMARKS
BRIGHAM CITY   PTSUNNY   65  21  19 CALM      29.73S
HILL AFB       PTSUNNY   64  19  17 CALM      29.74F
LOGAN          PTSUNNY   64  24  21 W5        29.74S
OGDEN          MOSUNNY   65  18  16 CALM      29.72F
SALT LAKE CITY PTSUNNY   69  25  19 N9        29.71F
TOOELE VALLEY  MOSUNNY   64  32  29 N13       29.72S
WENDOVER       MOSUNNY   69  24  18 NE9       29.68S
HEBER CITY     MOSUNNY   63  28  27 CALM      29.74S
WEST JORDAN    MOSUNNY   65  39  39 NW8       29.73F

$$

UTZ011>015-024>027-260200-

CENTRAL/NORTHEAST UTAH

CITY           SKY/WX    TMP DP  RH WIND       PRES   REMARKS
PROVO AIRPORT  MOSUNNY   67  38  34 SW6       29.72F
MOAB/CANYONLAN CLOUDY    73  31  21 W20G43    29.66R
DELTA          SUNNY     70  32  24 NE13      29.67F
PRICE          MOSUNNY   65  34  31 NW16G24   29.75R
ROOSEVELT      MOSUNNY   66  30  26 W13       29.74F
VERNAL         CLOUDY    68  25  19 W24G38    29.71R

$$

UTZ013>016-019>022-027-260200-

SOUTHERN UTAH

CITY           SKY/WX    TMP DP  RH WIND       PRES   REMARKS
BRYCE CANYON   PTSUNNY   65  26  23 W18G25    29.83R
CEDAR CITY     CLOUDY    66  32  28 NW20G28   29.73R
MILFORD        CLOUDY    74  27  17 SW9       29.67R
ST GEORGE      PTCLDY    91  19   7 SW18G25   29.52S
HANKSVILLE     PTSUNNY   75  30  19 W8        29.66F
BLANDING       MOSUNNY   76  24  14 W15G21    29.78S

$$

REGIONAL REPORTS     COLORADO/ARIZONA

CITY           SKY/WX    TMP DP  RH WIND       PRES   REMARKS
CRAIG, CO      CLOUDY    57  44  62 N7        29.80R
GRAND JUNCTION PTSUNNY   77  26  15 W16       29.62R
RIFLE, CO      CLOUDY    67  34  29 N9        29.68F
MONTROSE, CO   CLOUDY    70  29  21 CALM      29.74R
CORTEZ, CO     SUNNY     75  25  15 SW10      29.72S
COLORADO CITY    N/A     84  21  10 SW26G36   29.71R
PAGE, AZ       MOSUNNY   86  17   8 SW12G29   29.60S
GRAND CANYON   MOSUNNY   71  17  12 SW23G33   29.85S
KINGMAN, AZ    SUNNY     87  20   8 S21G30    29.68S
FLAGSTAFF, AZ  MOSUNNY   67  12  12 SW22G35   29.92S

$$

REGIONAL REPORTS    NEVADA/IDAHO/WYOMING

CITY           SKY/WX    TMP DP  RH WIND       PRES   REMARKS
LAS VEGAS, NV  MOSUNNY   94  10   4 S20G37    29.48F
ELY, NY        MOSUNNY   68  20  16 SE6       29.71F
ELKO, NV       SUNNY     70  22  16 W8        29.68F
POCATELLO, ID  CLOUDY    61  28  28 CALM      29.76F
BURLEY, ID     SUNNY     62  28  27 NW7       29.72F
FORT BRIDGER,    N/A     55  11  17 W15G24    29.85S
EVANSTON, WY   CLOUDY    53  21  28 W15       29.83S
ROCK SPRINGS,  CLOUDY    58  20  22 W18       29.80R
KEMMERER, WY     N/A     52  23  32 W9        29.84R

$$



USA.gov is the U.S. government's official web portal to all federal, state and local government web resources and services.